| time (UTC) | temp F | wind direction | speed MPH | gust MPH | rain 1hr in | rain 24hr in | rain mn in | humidity % | barometer mb |
| 20260831225529 | 94 | 0 | 0.0 | 3.0 | 0.00 | 0.00 | 0.00 | 51 | 1016.6 |
| 20260831225032 | 93 | 0 | 0.0 | 4.0 | 0.00 | 0.00 | 0.00 | 51 | 1016.7 |
| 20260831224557 | 93 | 70 | 0.0 | 4.0 | 0.00 | 0.00 | 0.00 | 52 | 1016.6 |
| 20260831224028 | 93 | 179 | 0.0 | 4.0 | 0.00 | 0.00 | 0.00 | 51 | 1016.7 |
| 20260831223529 | 94 | 0 | 0.0 | 3.0 | 0.00 | 0.00 | 0.00 | 51 | 1016.7 |
| 20260831223107 | 93 | 8 | 0.0 | 3.0 | 0.00 | 0.00 | 0.00 | 50 | 1016.8 |
| 20260831222529 | 94 | 0 | 0.0 | 3.0 | 0.00 | 0.00 | 0.00 | 49 | 1016.9 |
| 20260831222029 | 94 | 94 | 0.0 | 3.0 | 0.00 | 0.00 | 0.00 | 50 | 1017.0 |
| 20260831221557 | 94 | 71 | 0.0 | 3.0 | 0.00 | 0.00 | 0.00 | 50 | 1017.2 |
| 20260831221028 | 95 | 0 | 0.0 | 3.0 | 0.00 | 0.00 | 0.00 | 50 | 1017.2 |
| 20260831220532 | 95 | 115 | 0.0 | 7.0 | 0.00 | 0.00 | 0.00 | 50 | 1017.1 |
| 20260831220052 | 94 | 248 | 1.0 | 7.0 | 0.00 | 0.00 | 0.00 | 50 | 1017.0 |
| 20260831215529 | 94 | 188 | 1.0 | 6.0 | 0.00 | 0.00 | 0.00 | 51 | 1017.2 |
| 20260831215028 | 95 | 200 | 0.0 | 5.0 | 0.00 | 0.00 | 0.00 | 49 | 1017.2 |
| 20260831214557 | 95 | 127 | 0.0 | 5.0 | 0.00 | 0.00 | 0.00 | 50 | 1017.4 |
| 20260831214028 | 95 | 0 | 1.0 | 2.0 | 0.00 | 0.00 | 0.00 | 50 | 1017.3 |
| 20260831213531 | 95 | 0 | 0.0 | 4.0 | 0.00 | 0.00 | 0.00 | 50 | 1017.5 |
| 20260831213058 | 94 | 0 | 0.0 | 4.0 | 0.00 | 0.00 | 0.00 | 51 | 1017.6 |
| 20260831212528 | 93 | 0 | 0.0 | 4.0 | 0.00 | 0.00 | 0.00 | 51 | 1017.5 |
| 20260831212030 | 95 | 0 | 0.0 | 4.0 | 0.00 | 0.00 | 0.00 | 50 | 1017.4 |
| 20260831211552 | 96 | 0 | 0.0 | 3.0 | 0.00 | 0.00 | 0.00 | 50 | 1017.5 |
| 20260831211027 | 95 | 0 | 0.0 | 7.0 | 0.00 | 0.00 | 0.00 | 50 | 1017.5 |
| 20260831210529 | 94 | 0 | 0.0 | 7.0 | 0.00 | 0.00 | 0.00 | 50 | 1017.7 |
| 20260831210049 | 94 | 0 | 1.0 | 7.0 | 0.00 | 0.00 | 0.00 | 52 | 1017.5 |
| 20260831205530 | 94 | 331 | 1.0 | 7.0 | 0.00 | 0.00 | 0.00 | 53 | 1017.5 |
| 20260831205029 | 93 | 354 | 2.0 | 7.0 | 0.00 | 0.00 | 0.00 | 53 | 1017.5 |
| 20260831204545 | 93 | 1 | 4.0 | 7.0 | 0.00 | 0.00 | 0.00 | 53 | 1017.7 |
| 20260831204033 | 94 | 0 | 1.0 | 6.0 | 0.00 | 0.00 | 0.00 | 52 | 1017.7 |
| 20260831203528 | 92 | 3 | 3.0 | 6.0 | 0.00 | 0.00 | 0.00 | 53 | 1017.8 |
| 20260831203109 | 92 | 345 | 1.0 | 6.0 | 0.00 | 0.00 | 0.00 | 52 | 1017.8 |
| 20260831202531 | 94 | 332 | 0.0 | 4.0 | 0.00 | 0.00 | 0.00 | 49 | 1017.8 |
| 20260831202033 | 95 | 0 | 0.0 | 4.0 | 0.00 | 0.00 | 0.00 | 50 | 1018.0 |
| 20260831201551 | 94 | 0 | 2.0 | 4.0 | 0.00 | 0.00 | 0.00 | 52 | 1018.0 |
| 20260831201029 | 93 | 212 | 0.0 | 5.0 | 0.00 | 0.00 | 0.00 | 52 | 1018.0 |
| 20260831200529 | 94 | 169 | 1.0 | 5.0 | 0.00 | 0.00 | 0.00 | 52 | 1018.2 |
| 20260831200101 | 94 | 85 | 0.0 | 2.0 | 0.00 | 0.00 | 0.00 | 54 | 1018.1 |
| 20260831195532 | 93 | 131 | 0.0 | 2.0 | 0.00 | 0.00 | 0.00 | 52 | 1018.3 |
| 20260831195028 | 93 | 9 | 0.0 | 3.0 | 0.00 | 0.00 | 0.00 | 53 | 1018.2 |
| 20260831194629 | 93 | 83 | 1.0 | 10.0 | 0.00 | 0.00 | 0.00 | 52 | 1018.5 |
| 20260831194029 | 94 | 207 | 2.0 | 10.0 | 0.00 | 0.00 | 0.00 | 52 | 1018.5 |
| 20260831193528 | 94 | 223 | 0.0 | 6.0 | 0.00 | 0.00 | 0.00 | 51 | 1018.5 |
| 20260831193100 | 93 | 242 | 1.0 | 6.0 | 0.00 | 0.00 | 0.00 | 54 | 1018.5 |
| 20260831192530 | 92 | 0 | 1.0 | 6.0 | 0.00 | 0.00 | 0.00 | 54 | 1018.4 |
| 20260831192031 | 92 | 15 | 1.0 | 6.0 | 0.00 | 0.00 | 0.00 | 53 | 1018.4 |
| 20260831191551 | 92 | 349 | 2.0 | 7.0 | 0.00 | 0.00 | 0.00 | 54 | 1018.4 |
| 20260831191029 | 94 | 10 | 0.0 | 7.0 | 0.00 | 0.00 | 0.00 | 53 | 1018.5 |
| 20260831190530 | 92 | 13 | 2.0 | 9.0 | 0.00 | 0.00 | 0.00 | 54 | 1018.6 |
| 20260831190106 | 92 | 0 | 4.0 | 9.0 | 0.00 | 0.00 | 0.00 | 55 | 1018.7 |
| 20260831185530 | 94 | 34 | 1.0 | 9.0 | 0.00 | 0.00 | 0.00 | 51 | 1018.7 |
| 20260831185028 | 94 | 0 | 2.0 | 9.0 | 0.00 | 0.00 | 0.00 | 52 | 1018.6 |
| 20260831184545 | 93 | 230 | 3.0 | 9.0 | 0.00 | 0.00 | 0.00 | 51 | 1018.7 |
| 20260831184030 | 92 | 272 | 2.0 | 6.0 | 0.00 | 0.00 | 0.00 | 54 | 1018.8 |
| 20260831183530 | 93 | 328 | 1.0 | 4.0 | 0.00 | 0.00 | 0.00 | 53 | 1018.9 |
| 20260831183106 | 94 | 0 | 1.0 | 6.0 | 0.00 | 0.00 | 0.00 | 52 | 1019.1 |
| 20260831182530 | 94 | 0 | 1.0 | 7.0 | 0.00 | 0.00 | 0.00 | 53 | 1019.1 |
| 20260831182032 | 92 | 43 | 2.0 | 7.0 | 0.00 | 0.00 | 0.00 | 53 | 1019.1 |
| 20260831181557 | 94 | 100 | 1.0 | 8.0 | 0.00 | 0.00 | 0.00 | 53 | 1019.2 |
| 20260831181027 | 93 | 236 | 2.0 | 8.0 | 0.00 | 0.00 | 0.00 | 53 | 1019.1 |
| 20260831180529 | 93 | 0 | 1.0 | 7.0 | 0.00 | 0.00 | 0.00 | 53 | 1019.2 |
| 20260831180114 | 92 | 124 | 1.0 | 7.0 | 0.00 | 0.00 | 0.00 | 56 | 1019.2 |
| 20260831175529 | 91 | 17 | 2.0 | 7.0 | 0.00 | 0.00 | 0.00 | 57 | 1019.2 |
| 20260831175032 | 93 | 113 | 0.0 | 5.0 | 0.00 | 0.00 | 0.00 | 57 | 1019.2 |
| 20260831174556 | 92 | 24 | 0.0 | 8.0 | 0.00 | 0.00 | 0.00 | 57 | 1019.3 |
| 20260831174028 | 91 | 49 | 4.0 | 8.0 | 0.00 | 0.00 | 0.00 | 56 | 1019.5 |
| 20260831173533 | 91 | 30 | 0.0 | 6.0 | 0.00 | 0.00 | 0.00 | 58 | 1019.5 |
| 20260831173055 | 91 | 354 | 1.0 | 9.0 | 0.00 | 0.00 | 0.00 | 59 | 1019.5 |
| 20260831172529 | 91 | 186 | 1.0 | 9.0 | 0.00 | 0.00 | 0.00 | 59 | 1019.5 |
| 20260831172030 | 90 | 356 | 5.0 | 11.0 | 0.00 | 0.00 | 0.00 | 60 | 1019.5 |
| 20260831171557 | 91 | 70 | 1.0 | 11.0 | 0.00 | 0.00 | 0.00 | 59 | 1019.7 |
| 20260831171030 | 91 | 25 | 2.0 | 9.0 | 0.00 | 0.00 | 0.00 | 59 | 1019.7 |
| 20260831170530 | 91 | 0 | 0.0 | 8.0 | 0.00 | 0.00 | 0.00 | 59 | 1019.8 |
| 20260831170055 | 90 | 357 | 1.0 | 8.0 | 0.00 | 0.00 | 0.00 | 58 | 1019.8 |
| 20260831165531 | 90 | 324 | 1.0 | 6.0 | 0.00 | 0.00 | 0.00 | 59 | 1019.8 |
| 20260831165029 | 90 | 356 | 1.0 | 4.0 | 0.00 | 0.00 | 0.00 | 58 | 1019.9 |
| 20260831164556 | 91 | 0 | 1.0 | 4.0 | 0.00 | 0.00 | 0.00 | 59 | 1020.0 |
| 20260831164030 | 90 | 58 | 1.0 | 8.0 | 0.00 | 0.00 | 0.00 | 58 | 1019.9 |
| 20260831163528 | 91 | 0 | 1.0 | 8.0 | 0.00 | 0.00 | 0.00 | 59 | 1020.0 |
| 20260831163053 | 90 | 0 | 1.0 | 10.0 | 0.00 | 0.00 | 0.00 | 60 | 1020.1 |
| 20260831162532 | 90 | 315 | 0.0 | 10.0 | 0.00 | 0.00 | 0.00 | 61 | 1020.1 |
| 20260831162032 | 89 | 337 | 3.0 | 10.0 | 0.00 | 0.00 | 0.00 | 62 | 1020.1 |
| 20260831161551 | 89 | 127 | 2.0 | 7.0 | 0.00 | 0.00 | 0.00 | 61 | 1020.2 |
| 20260831161029 | 89 | 323 | 1.0 | 7.0 | 0.00 | 0.00 | 0.00 | 61 | 1020.2 |
| 20260831160528 | 90 | 107 | 1.0 | 6.0 | 0.00 | 0.00 | 0.00 | 61 | 1020.2 |
| 20260831160058 | 89 | 290 | 1.0 | 6.0 | 0.00 | 0.00 | 0.00 | 62 | 1020.1 |
| 20260831155530 | 89 | 237 | 1.0 | 5.0 | 0.00 | 0.00 | 0.00 | 62 | 1020.1 |
| 20260831155031 | 89 | 63 | 0.0 | 5.0 | 0.00 | 0.00 | 0.00 | 63 | 1020.1 |
| 20260831154616 | 88 | 42 | 2.0 | 5.0 | 0.00 | 0.00 | 0.00 | 63 | 1020.0 |
| 20260831154028 | 89 | 77 | 0.0 | 3.0 | 0.00 | 0.00 | 0.00 | 63 | 1020.1 |
| 20260831153530 | 88 | 46 | 0.0 | 4.0 | 0.00 | 0.00 | 0.00 | 62 | 1020.1 |
| 20260831153057 | 88 | 275 | 1.0 | 4.0 | 0.00 | 0.00 | 0.00 | 65 | 1020.2 |
| 20260831152531 | 88 | 0 | 0.0 | 5.0 | 0.00 | 0.00 | 0.00 | 63 | 1020.2 |
| 20260831152030 | 88 | 359 | 1.0 | 5.0 | 0.00 | 0.00 | 0.00 | 64 | 1020.2 |
| 20260831151547 | 88 | 197 | 1.0 | 5.0 | 0.00 | 0.00 | 0.00 | 63 | 1020.1 |
| 20260831151033 | 87 | 0 | 0.0 | 6.0 | 0.00 | 0.00 | 0.00 | 65 | 1020.1 |
| 20260831150530 | 86 | 51 | 0.0 | 6.0 | 0.00 | 0.00 | 0.00 | 67 | 1020.2 |
| 20260831150050 | 86 | 0 | 1.0 | 6.0 | 0.00 | 0.00 | 0.00 | 67 | 1020.3 |
| 20260831145526 | 87 | 186 | 0.0 | 5.0 | 0.00 | 0.00 | 0.00 | 67 | 1020.2 |
| 20260831145027 | 86 | 153 | 1.0 | 5.0 | 0.00 | 0.00 | 0.00 | 69 | 1020.2 |
| 20260831144600 | 85 | 0 | 0.0 | 5.0 | 0.00 | 0.00 | 0.00 | 70 | 1020.2 |
| 20260831144030 | 84 | 348 | 0.0 | 5.0 | 0.00 | 0.00 | 0.00 | 70 | 1020.3 |
| 20260831143529 | 84 | 20 | 2.0 | 5.0 | 0.00 | 0.00 | 0.00 | 70 | 1020.3 |
| 20260831143051 | 85 | 62 | 0.0 | 4.0 | 0.00 | 0.00 | 0.00 | 70 | 1020.2 |
| 20260831142528 | 85 | 0 | 0.0 | 5.0 | 0.00 | 0.00 | 0.00 | 71 | 1020.3 |
| 20260831142028 | 84 | 39 | 0.0 | 5.0 | 0.00 | 0.00 | 0.00 | 71 | 1020.1 |
| 20260831141549 | 84 | 102 | 0.0 | 2.0 | 0.00 | 0.00 | 0.00 | 72 | 1020.0 |
| 20260831141028 | 84 | 0 | 0.0 | 3.0 | 0.00 | 0.00 | 0.00 | 71 | 1020.0 |
| 20260831140531 | 84 | 0 | 1.0 | 3.0 | 0.00 | 0.00 | 0.00 | 71 | 1020.0 |
| 20260831140053 | 84 | 0 | 0.0 | 6.0 | 0.00 | 0.00 | 0.00 | 72 | 1019.9 |
| 20260831135528 | 84 | 119 | 1.0 | 6.0 | 0.00 | 0.00 | 0.00 | 72 | 1020.0 |
| 20260831135031 | 83 | 0 | 0.0 | 5.0 | 0.00 | 0.00 | 0.00 | 73 | 1020.0 |
| 20260831134550 | 83 | 178 | 0.0 | 4.0 | 0.00 | 0.00 | 0.00 | 73 | 1020.0 |
| 20260831134030 | 82 | 184 | 2.0 | 5.0 | 0.00 | 0.00 | 0.00 | 74 | 1020.0 |
| 20260831133529 | 82 | 188 | 0.0 | 5.0 | 0.00 | 0.00 | 0.00 | 75 | 1020.0 |
| 20260831133048 | 82 | 231 | 1.0 | 5.0 | 0.00 | 0.00 | 0.00 | 75 | 1020.0 |
| 20260831132528 | 82 | 182 | 0.0 | 2.0 | 0.00 | 0.00 | 0.00 | 76 | 1020.1 |
| 20260831132029 | 82 | 192 | 0.0 | 4.0 | 0.00 | 0.00 | 0.00 | 76 | 1019.9 |
| 20260831131555 | 81 | 0 | 0.0 | 4.0 | 0.00 | 0.00 | 0.00 | 77 | 1019.9 |
| 20260831131032 | 80 | 171 | 0.0 | 4.0 | 0.00 | 0.00 | 0.00 | 78 | 1019.8 |
| 20260831130528 | 80 | 168 | 0.0 | 4.0 | 0.00 | 0.00 | 0.00 | 78 | 1019.9 |
| 20260831130100 | 80 | 0 | 0.0 | 2.0 | 0.00 | 0.00 | 0.00 | 79 | 1019.8 |
| 20260831125533 | 79 | 182 | 0.0 | 3.0 | 0.00 | 0.00 | 0.00 | 80 | 1019.8 |
| 20260831125029 | 79 | 160 | 1.0 | 3.0 | 0.00 | 0.00 | 0.00 | 81 | 1019.7 |
| 20260831124551 | 78 | 188 | 0.0 | 5.0 | 0.00 | 0.00 | 0.00 | 81 | 1019.8 |
| 20260831124028 | 77 | 0 | 1.0 | 5.0 | 0.00 | 0.00 | 0.00 | 83 | 1019.7 |
| 20260831123530 | 77 | 188 | 1.0 | 5.0 | 0.00 | 0.00 | 0.00 | 84 | 1019.7 |
| 20260831123058 | 76 | 0 | 1.0 | 3.0 | 0.00 | 0.00 | 0.00 | 85 | 1019.6 |
| 20260831122528 | 75 | 178 | 0.0 | 2.0 | 0.00 | 0.00 | 0.00 | 86 | 1019.5 |
| 20260831122029 | 75 | 172 | 0.0 | 2.0 | 0.00 | 0.00 | 0.00 | 87 | 1019.5 |
| 20260831121555 | 74 | 179 | 0.0 | 2.0 | 0.00 | 0.00 | 0.00 | 88 | 1019.4 |
| 20260831121028 | 74 | 0 | 0.0 | 3.0 | 0.00 | 0.00 | 0.00 | 88 | 1019.4 |
| 20260831120527 | 74 | 198 | 1.0 | 3.0 | 0.00 | 0.00 | 0.00 | 88 | 1019.5 |
| 20260831120056 | 74 | 166 | 0.0 | 3.0 | 0.00 | 0.00 | 0.00 | 88 | 1019.3 |
| 20260831115530 | 74 | 167 | 1.0 | 3.0 | 0.00 | 0.00 | 0.00 | 88 | 1019.2 |
| 20260831115029 | 74 | 157 | 1.0 | 2.0 | 0.00 | 0.00 | 0.00 | 88 | 1019.2 |
| 20260831114551 | 74 | 160 | 0.0 | 2.0 | 0.00 | 0.00 | 0.00 | 88 | 1019.2 |
| 20260831114029 | 74 | 161 | 0.0 | 2.0 | 0.00 | 0.00 | 0.00 | 88 | 1019.1 |
| 20260831113532 | 74 | 0 | 0.0 | 2.0 | 0.00 | 0.00 | 0.00 | 88 | 1019.0 |
| 20260831113049 | 73 | 167 | 0.0 | 2.0 | 0.00 | 0.00 | 0.00 | 89 | 1018.9 |
| 20260831112530 | 73 | 0 | 0.0 | 2.0 | 0.00 | 0.00 | 0.00 | 89 | 1018.8 |
| 20260831112036 | 73 | 0 | 0.0 | 0.0 | 0.00 | 0.00 | 0.00 | 89 | 1018.9 |
| 20260831111555 | 73 | 0 | 0.0 | 0.0 | 0.00 | 0.00 | 0.00 | 89 | 1018.8 |
| 20260831111028 | 74 | 0 | 0.0 | 0.0 | 0.00 | 0.00 | 0.00 | 88 | 1018.7 |
| 20260831110529 | 74 | 0 | 0.0 | 1.0 | 0.00 | 0.00 | 0.00 | 88 | 1018.7 |
| 20260831110054 | 74 | 0 | 0.0 | 2.0 | 0.00 | 0.00 | 0.00 | 88 | 1018.7 |
| 20260831105531 | 74 | 0 | 0.0 | 2.0 | 0.00 | 0.00 | 0.00 | 88 | 1018.6 |
| 20260831105032 | 74 | 174 | 0.0 | 2.0 | 0.00 | 0.00 | 0.00 | 88 | 1018.6 |
| 20260831104611 | 74 | 192 | 0.0 | 2.0 | 0.00 | 0.00 | 0.00 | 88 | 1018.5 |
| 20260831104032 | 74 | 157 | 0.0 | 3.0 | 0.00 | 0.00 | 0.00 | 87 | 1018.5 |
| 20260831103531 | 74 | 188 | 0.0 | 3.0 | 0.00 | 0.00 | 0.00 | 87 | 1018.4 |
| 20260831103046 | 74 | 173 | 0.0 | 3.0 | 0.00 | 0.00 | 0.00 | 87 | 1018.5 |
| 20260831102533 | 74 | 182 | 1.0 | 3.0 | 0.00 | 0.00 | 0.00 | 87 | 1018.4 |
| 20260831102034 | 74 | 165 | 0.0 | 4.0 | 0.00 | 0.00 | 0.00 | 87 | 1018.2 |
| 20260831101559 | 74 | 165 | 1.0 | 4.0 | 0.00 | 0.00 | 0.00 | 87 | 1018.2 |
| 20260831101030 | 74 | 180 | 1.0 | 3.0 | 0.00 | 0.00 | 0.00 | 87 | 1018.2 |
| 20260831100532 | 74 | 185 | 1.0 | 3.0 | 0.00 | 0.00 | 0.00 | 87 | 1018.2 |
| 20260831100108 | 74 | 193 | 1.0 | 3.0 | 0.00 | 0.00 | 0.00 | 87 | 1018.2 |
| 20260831095532 | 74 | 0 | 0.0 | 3.0 | 0.00 | 0.00 | 0.00 | 87 | 1018.1 |
| 20260831095032 | 74 | 0 | 1.0 | 4.0 | 0.00 | 0.00 | 0.00 | 87 | 1018.0 |
| 20260831094600 | 74 | 192 | 1.0 | 4.0 | 0.00 | 0.00 | 0.00 | 87 | 1017.9 |
| 20260831094030 | 74 | 0 | 1.0 | 3.0 | 0.00 | 0.00 | 0.00 | 88 | 1017.9 |
| 20260831093530 | 74 | 160 | 1.0 | 3.0 | 0.00 | 0.00 | 0.00 | 88 | 1017.8 |
| 20260831093103 | 74 | 184 | 0.0 | 3.0 | 0.00 | 0.00 | 0.00 | 88 | 1017.6 |
| 20260831092529 | 74 | 0 | 1.0 | 3.0 | 0.00 | 0.00 | 0.00 | 88 | 1017.7 |
| 20260831092028 | 74 | 0 | 1.0 | 3.0 | 0.00 | 0.00 | 0.00 | 88 | 1017.7 |
| 20260831091552 | 74 | 188 | 1.0 | 5.0 | 0.00 | 0.00 | 0.00 | 88 | 1017.7 |
| 20260831091031 | 74 | 179 | 1.0 | 5.0 | 0.00 | 0.00 | 0.00 | 88 | 1017.7 |
| 20260831090530 | 74 | 0 | 2.0 | 5.0 | 0.00 | 0.00 | 0.00 | 88 | 1017.8 |
| 20260831090052 | 74 | 207 | 2.0 | 4.0 | 0.00 | 0.00 | 0.00 | 88 | 1017.8 |
| 20260831085532 | 74 | 193 | 1.0 | 3.0 | 0.00 | 0.00 | 0.00 | 88 | 1017.8 |
| 20260831085031 | 74 | 0 | 0.0 | 2.0 | 0.00 | 0.00 | 0.00 | 88 | 1017.7 |
| 20260831084558 | 74 | 0 | 0.0 | 3.0 | 0.00 | 0.00 | 0.00 | 88 | 1017.8 |
| 20260831084031 | 74 | 215 | 0.0 | 3.0 | 0.00 | 0.00 | 0.00 | 87 | 1017.6 |
| 20260831083529 | 74 | 195 | 1.0 | 3.0 | 0.00 | 0.00 | 0.00 | 87 | 1017.7 |
| 20260831083056 | 74 | 177 | 0.0 | 2.0 | 0.00 | 0.00 | 0.00 | 87 | 1017.6 |
| 20260831082528 | 74 | 158 | 0.0 | 1.0 | 0.00 | 0.00 | 0.00 | 87 | 1017.6 |
| 20260831082029 | 74 | 178 | 0.0 | 2.0 | 0.00 | 0.00 | 0.00 | 87 | 1017.7 |
| 20260831081556 | 74 | 167 | 0.0 | 3.0 | 0.00 | 0.00 | 0.00 | 87 | 1017.6 |
| 20260831081032 | 74 | 169 | 0.0 | 3.0 | 0.00 | 0.00 | 0.00 | 87 | 1017.6 |
| 20260831080529 | 74 | 172 | 0.0 | 3.0 | 0.00 | 0.00 | 0.00 | 87 | 1017.6 |
| 20260831075527 | 74 | 165 | 0.0 | 3.0 | 0.00 | 0.00 | 0.00 | 87 | 1017.6 |
| 20260831075028 | 74 | 163 | 0.0 | 3.0 | 0.00 | 0.00 | 0.00 | 86 | 1017.6 |
| 20260831074553 | 74 | 157 | 0.0 | 2.0 | 0.00 | 0.00 | 0.00 | 86 | 1017.6 |
| 20260831074032 | 74 | 0 | 0.0 | 1.0 | 0.00 | 0.00 | 0.00 | 86 | 1017.6 |
| 20260831073528 | 74 | 0 | 0.0 | 1.0 | 0.00 | 0.00 | 0.00 | 86 | 1017.5 |
| 20260831073049 | 75 | 0 | 0.0 | 1.0 | 0.00 | 0.00 | 0.00 | 86 | 1017.6 |
| 20260831072528 | 75 | 166 | 0.0 | 1.0 | 0.00 | 0.00 | 0.00 | 86 | 1017.6 |
| 20260831072029 | 75 | 179 | 0.0 | 2.0 | 0.00 | 0.00 | 0.00 | 85 | 1017.6 |
| 20260831071558 | 75 | 176 | 0.0 | 2.0 | 0.00 | 0.00 | 0.00 | 85 | 1017.7 |
| 20260831071026 | 75 | 0 | 0.0 | 1.0 | 0.00 | 0.00 | 0.00 | 85 | 1017.7 |
| 20260831070529 | 75 | 171 | 0.0 | 1.0 | 0.00 | 0.00 | 0.00 | 85 | 1017.7 |
| 20260831070109 | 75 | 0 | 0.0 | 2.0 | 0.00 | 0.00 | 0.00 | 85 | 1017.8 |
| 20260831065526 | 75 | 170 | 0.0 | 2.0 | 0.00 | 0.00 | 0.00 | 85 | 1017.8 |
| 20260831065028 | 75 | 0 | 0.0 | 2.0 | 0.00 | 0.00 | 0.00 | 85 | 1017.8 |
| 20260831064548 | 75 | 0 | 0.0 | 0.0 | 0.00 | 0.00 | 0.00 | 85 | 1017.8 |
| 20260831064029 | 75 | 0 | 0.0 | 0.0 | 0.00 | 0.00 | 0.00 | 85 | 1017.8 |
| 20260831063527 | 75 | 0 | 0.0 | 0.0 | 0.00 | 0.00 | 0.00 | 85 | 1017.9 |
| 20260831063046 | 75 | 0 | 0.0 | 0.0 | 0.00 | 0.00 | 0.00 | 85 | 1017.9 |
| 20260831062530 | 75 | 0 | 0.0 | 0.0 | 0.00 | 0.00 | 0.00 | 84 | 1018.0 |
| 20260831062029 | 76 | 0 | 0.0 | 0.0 | 0.00 | 0.00 | 0.00 | 83 | 1018.1 |
| 20260831061559 | 76 | 0 | 0.0 | 3.0 | 0.00 | 0.00 | 0.00 | 83 | 1018.0 |
| 20260831061029 | 76 | 0 | 0.0 | 3.0 | 0.00 | 0.00 | 0.00 | 82 | 1018.1 |
| 20260831060527 | 76 | 0 | 0.0 | 2.0 | 0.00 | 0.00 | 0.00 | 82 | 1017.9 |
| 20260831060052 | 76 | 165 | 0.0 | 0.0 | 0.00 | 0.00 | 0.00 | 83 | 1018.0 |
| 20260831055530 | 76 | 0 | 0.0 | 2.0 | 0.00 | 0.00 | 0.00 | 82 | 1018.0 |
| 20260831055028 | 76 | 0 | 0.0 | 2.0 | 0.00 | 0.00 | 0.00 | 81 | 1017.9 |
| 20260831054551 | 77 | 153 | 0.0 | 1.0 | 0.00 | 0.00 | 0.00 | 81 | 1017.9 |
| 20260831054030 | 77 | 0 | 0.0 | 1.0 | 0.00 | 0.00 | 0.00 | 81 | 1018.0 |
| 20260831053529 | 77 | 155 | 0.0 | 2.0 | 0.00 | 0.00 | 0.00 | 80 | 1017.9 |
| 20260831053048 | 77 | 160 | 0.0 | 4.0 | 0.00 | 0.00 | 0.00 | 80 | 1018.0 |
| 20260831052528 | 77 | 0 | 0.0 | 4.0 | 0.00 | 0.00 | 0.00 | 79 | 1018.0 |
| 20260831052029 | 77 | 151 | 1.0 | 4.0 | 0.00 | 0.00 | 0.00 | 79 | 1018.0 |
| 20260831051558 | 77 | 172 | 1.0 | 4.0 | 0.00 | 0.00 | 0.00 | 79 | 1018.0 |
| 20260831051026 | 77 | 197 | 0.0 | 2.0 | 0.00 | 0.00 | 0.00 | 79 | 1018.0 |
| 20260831050530 | 77 | 0 | 0.0 | 2.0 | 0.00 | 0.00 | 0.00 | 79 | 1017.9 |
| 20260831050056 | 77 | 163 | 0.0 | 2.0 | 0.00 | 0.00 | 0.00 | 79 | 1018.0 |
| 20260831045530 | 78 | 155 | 0.0 | 3.0 | 0.00 | 0.00 | 0.00 | 78 | 1018.0 |
| 20260831045031 | 78 | 0 | 1.0 | 3.0 | 0.00 | 0.00 | 0.00 | 77 | 1018.0 |
| 20260831044556 | 78 | 0 | 0.0 | 2.0 | 0.00 | 0.00 | 0.00 | 77 | 1018.1 |
| 20260831044028 | 78 | 0 | 0.0 | 3.0 | 0.00 | 0.00 | 0.00 | 77 | 1018.1 |
| 20260831043527 | 78 | 172 | 0.0 | 3.0 | 0.00 | 0.00 | 0.00 | 77 | 1018.1 |
| 20260831043051 | 78 | 176 | 0.0 | 3.0 | 0.00 | 0.00 | 0.00 | 77 | 1018.1 |
| 20260831042531 | 78 | 159 | 0.0 | 4.0 | 0.00 | 0.00 | 0.00 | 77 | 1018.1 |
| 20260831042029 | 78 | 0 | 0.0 | 4.0 | 0.00 | 0.00 | 0.00 | 77 | 1017.9 |
| 20260831041604 | 78 | 170 | 0.0 | 4.0 | 0.00 | 0.00 | 0.00 | 77 | 1018.0 |
| 20260831041033 | 78 | 167 | 0.0 | 4.0 | 0.00 | 0.00 | 0.00 | 77 | 1017.9 |
| 20260831040531 | 78 | 169 | 1.0 | 4.0 | 0.00 | 0.00 | 0.00 | 76 | 1017.8 |
| 20260831040051 | 79 | 159 | 1.0 | 4.0 | 0.00 | 0.00 | 0.00 | 76 | 1017.8 |
| 20260831035532 | 79 | 165 | 2.0 | 4.0 | 0.00 | 0.00 | 0.00 | 76 | 1017.9 |
| 20260831035032 | 79 | 186 | 1.0 | 4.0 | 0.00 | 0.00 | 0.00 | 75 | 1017.9 |
| 20260831034547 | 79 | 162 | 0.0 | 4.0 | 0.00 | 0.00 | 0.00 | 75 | 1017.9 |
| 20260831034030 | 79 | 170 | 1.0 | 4.0 | 0.00 | 0.00 | 0.00 | 75 | 1017.9 |
| 20260831033528 | 79 | 155 | 0.0 | 4.0 | 0.00 | 0.00 | 0.00 | 75 | 1017.9 |
| 20260831033103 | 79 | 167 | 0.0 | 3.0 | 0.00 | 0.00 | 0.00 | 74 | 1018.0 |
| 20260831032532 | 79 | 0 | 1.0 | 3.0 | 0.00 | 0.00 | 0.00 | 74 | 1018.0 |
| 20260831032027 | 79 | 160 | 0.0 | 2.0 | 0.00 | 0.00 | 0.00 | 74 | 1018.0 |
| 20260831031556 | 80 | 165 | 0.0 | 3.0 | 0.00 | 0.00 | 0.00 | 74 | 1018.0 |
| 20260831031028 | 80 | 159 | 1.0 | 3.0 | 0.00 | 0.00 | 0.00 | 73 | 1018.1 |
| 20260831030531 | 80 | 179 | 1.0 | 3.0 | 0.00 | 0.00 | 0.00 | 72 | 1018.0 |
| 20260831025529 | 80 | 0 | 0.0 | 2.0 | 0.00 | 0.00 | 0.00 | 73 | 1018.1 |
| 20260831025029 | 80 | 0 | 0.0 | 2.0 | 0.00 | 0.00 | 0.00 | 73 | 1017.9 |
| 20260831024547 | 80 | 158 | 0.0 | 0.0 | 0.00 | 0.00 | 0.00 | 74 | 1018.0 |
| 20260831024031 | 80 | 153 | 0.0 | 2.0 | 0.00 | 0.00 | 0.00 | 73 | 1018.0 |
| 20260831023532 | 80 | 0 | 0.0 | 2.0 | 0.00 | 0.00 | 0.00 | 73 | 1018.0 |
| 20260831023047 | 80 | 144 | 0.0 | 2.0 | 0.00 | 0.00 | 0.00 | 73 | 1017.9 |
| 20260831022529 | 80 | 166 | 0.0 | 2.0 | 0.00 | 0.00 | 0.00 | 72 | 1018.0 |
| 20260831022032 | 80 | 160 | 0.0 | 2.0 | 0.00 | 0.00 | 0.00 | 72 | 1018.0 |
| 20260831021559 | 80 | 151 | 0.0 | 2.0 | 0.00 | 0.00 | 0.00 | 73 | 1017.9 |
| 20260831021032 | 80 | 0 | 0.0 | 3.0 | 0.00 | 0.00 | 0.00 | 72 | 1017.8 |
| 20260831020529 | 80 | 158 | 0.0 | 3.0 | 0.00 | 0.00 | 0.00 | 71 | 1017.8 |
| 20260831020056 | 80 | 156 | 1.0 | 3.0 | 0.00 | 0.00 | 0.00 | 71 | 1017.7 |
| 20260831015530 | 80 | 155 | 1.0 | 3.0 | 0.00 | 0.00 | 0.00 | 71 | 1017.9 |
| 20260831015028 | 79 | 172 | 0.0 | 2.0 | 0.00 | 0.00 | 0.00 | 73 | 1017.8 |
| 20260831014558 | 79 | 0 | 0.0 | 0.0 | 0.00 | 0.00 | 0.00 | 73 | 1017.7 |
| 20260831014048 | 79 | 0 | 0.0 | 0.0 | 0.00 | 0.00 | 0.00 | 73 | 1017.7 |
| 20260831013532 | 80 | 0 | 0.0 | 0.0 | 0.00 | 0.00 | 0.00 | 71 | 1017.6 |
| 20260831013058 | 80 | 0 | 0.0 | 0.0 | 0.00 | 0.00 | 0.00 | 71 | 1017.6 |
| 20260831012531 | 80 | 0 | 0.0 | 0.0 | 0.00 | 0.00 | 0.00 | 72 | 1017.4 |
| 20260831012032 | 80 | 0 | 0.0 | 0.0 | 0.00 | 0.00 | 0.00 | 71 | 1017.4 |
| 20260831011609 | 80 | 0 | 0.0 | 0.0 | 0.00 | 0.00 | 0.00 | 71 | 1017.4 |
| 20260831011030 | 81 | 0 | 0.0 | 0.0 | 0.00 | 0.00 | 0.00 | 71 | 1017.3 |
| 20260831010531 | 81 | 0 | 0.0 | 0.0 | 0.00 | 0.00 | 0.00 | 69 | 1017.3 |
| 20260831010053 | 81 | 0 | 0.0 | 0.0 | 0.00 | 0.00 | 0.00 | 68 | 1017.2 |
| 20260831005531 | 82 | 0 | 0.0 | 0.0 | 0.00 | 0.00 | 0.00 | 67 | 1017.2 |
| 20260831005032 | 82 | 0 | 0.0 | 0.0 | 0.00 | 0.00 | 0.00 | 66 | 1017.2 |
| 20260831004600 | 82 | 0 | 0.0 | 0.0 | 0.00 | 0.00 | 0.00 | 68 | 1017.2 |
| 20260831004033 | 82 | 0 | 0.0 | 0.0 | 0.00 | 0.00 | 0.00 | 67 | 1017.1 |
| 20260831003529 | 83 | 0 | 0.0 | 0.0 | 0.00 | 0.00 | 0.00 | 65 | 1017.0 |
| 20260831003059 | 83 | 0 | 0.0 | 0.0 | 0.00 | 0.00 | 0.00 | 65 | 1017.0 |
| 20260831002535 | 84 | 0 | 0.0 | 0.0 | 0.00 | 0.00 | 0.00 | 64 | 1017.0 |
| 20260831002028 | 84 | 0 | 0.0 | 0.0 | 0.00 | 0.00 | 0.00 | 62 | 1017.0 |
| 20260831001603 | 85 | 0 | 0.0 | 0.0 | 0.00 | 0.00 | 0.00 | 59 | 1017.1 |
| 20260831001031 | 86 | 0 | 0.0 | 0.0 | 0.00 | 0.00 | 0.00 | 57 | 1017.0 |
| 20260831000531 | 86 | 0 | 0.0 | 0.0 | 0.00 | 0.00 | 0.00 | 56 | 1017.0 |
| 20260831000052 | 87 | 0 | 0.0 | 0.0 | 0.00 | 0.00 | 0.00 | 56 | 1017.1 |
| 20260830235530 | 87 | 0 | 0.0 | 0.0 | 0.00 | 0.00 | 0.00 | 55 | 1017.0 |
| 20260830235030 | 88 | 0 | 0.0 | 0.0 | 0.00 | 0.00 | 0.00 | 55 | 1017.1 |
| 20260830234549 | 88 | 0 | 0.0 | 3.0 | 0.00 | 0.00 | 0.00 | 55 | 1017.1 |
| 20260830234032 | 88 | 0 | 0.0 | 3.0 | 0.00 | 0.00 | 0.00 | 53 | 1017.1 |
| 20260830233533 | 88 | 0 | 0.0 | 1.0 | 0.00 | 0.00 | 0.00 | 54 | 1017.0 |
| 20260830233106 | 89 | 0 | 0.0 | 1.0 | 0.00 | 0.00 | 0.00 | 54 | 1017.1 |
| 20260830232531 | 89 | 0 | 0.0 | 1.0 | 0.00 | 0.00 | 0.00 | 53 | 1017.0 |
| 20260830232032 | 89 | 0 | 0.0 | 1.0 | 0.00 | 0.00 | 0.00 | 53 | 1016.8 |
| 20260830231548 | 89 | 0 | 0.0 | 3.0 | 0.00 | 0.00 | 0.00 | 51 | 1016.9 |
| 20260830231028 | 90 | 0 | 0.0 | 3.0 | 0.00 | 0.00 | 0.00 | 50 | 1017.0 |
| 20260830230528 | 91 | 0 | 0.0 | 3.0 | 0.00 | 0.00 | 0.00 | 50 | 1016.9 |
| 20260830230046 | 91 | 0 | 0.0 | 2.0 | 0.00 | 0.00 | 0.00 | 49 | 1017.0 |